| time (UTC) | temp C | wind direction | speed KPH | gust KPH | rain 1hr cm | rain 24hr cm | rain mn cm | humidity % | barometer mb |
| 20260502213741 | 15 | 164 | 0.0 | 6.4 | 0.00 | 0.00 | 0.00 | 98 | 1015.0 |
| 20260502212239 | 15 | 68 | 3.2 | 6.4 | 0.00 | 0.00 | 0.00 | 98 | 1015.0 |
| 20260502210739 | 15 | 236 | 6.4 | 41.8 | 2.31 | 0.00 | 0.00 | 97 | 1015.2 |
| 20260502205236 | 18 | 183 | 20.9 | 38.6 | 0.00 | 0.00 | 0.00 | 70 | 1015.2 |
| 20260502203736 | 15 | 176 | 3.2 | 12.9 | 0.00 | 0.00 | 0.00 | 80 | 1014.8 |
| 20260502202235 | 16 | 188 | 3.2 | 3.2 | 0.00 | 0.00 | 0.00 | 76 | 1014.6 |
| 20260502200735 | 15 | 211 | 3.2 | 3.2 | 0.00 | 0.00 | 0.00 | 82 | 1014.3 |
| 20260502195233 | 16 | 40 | 3.2 | 6.4 | 0.00 | 0.00 | 0.00 | 74 | 1014.2 |
| 20260502193733 | 17 | 93 | 3.2 | 6.4 | 0.00 | 0.00 | 0.00 | 69 | 1014.2 |
| 20260502192232 | 18 | 44 | 0.0 | 3.2 | 0.00 | 0.00 | 0.00 | 67 | 1014.2 |
| 20260502190732 | 20 | 346 | 0.0 | 0.0 | 0.00 | 0.00 | 0.00 | 63 | 1014.2 |
| 20260502185231 | 20 | 284 | 3.2 | 6.4 | 0.00 | 0.00 | 0.00 | 59 | 1014.1 |
| 20260502183732 | 20 | 279 | 3.2 | 9.7 | 0.00 | 0.00 | 0.00 | 54 | 1014.0 |
| 20260502182230 | 21 | 250 | 6.4 | 9.7 | 0.00 | 0.00 | 0.00 | 54 | 1014.0 |
| 20260502180730 | 22 | 280 | 3.2 | 6.4 | 0.00 | 0.00 | 0.00 | 46 | 1014.1 |
| 20260502163729 | 23 | 231 | 9.7 | 17.7 | 0.00 | 0.00 | 0.00 | 46 | 1015.1 |
| 20260502162228 | 21 | 218 | 9.7 | 20.9 | 0.00 | 0.00 | 0.00 | 51 | 1015.3 |
| 20260502160728 | 22 | 236 | 9.7 | 20.9 | 0.00 | 0.00 | 0.00 | 47 | 1015.5 |
| 20260502152227 | 22 | 226 | 9.7 | 24.1 | 0.00 | 0.00 | 0.00 | 47 | 1015.9 |
| 20260502150727 | 22 | 198 | 9.7 | 20.9 | 0.00 | 0.00 | 0.00 | 47 | 1016.1 |
| 20260502130725 | 23 | 193 | 9.7 | 27.4 | 0.00 | 0.00 | 0.00 | 45 | 1017.0 |
| 20260502123724 | 22 | 209 | 12.9 | 35.4 | 0.00 | 0.00 | 0.00 | 44 | 1017.4 |
| 20260502122224 | 21 | 195 | 17.7 | 27.4 | 0.00 | 0.00 | 0.00 | 45 | 1017.6 |
| 20260502120724 | 22 | 213 | 12.9 | 27.4 | 0.00 | 0.00 | 0.00 | 44 | 1017.6 |
| 20260502115223 | 21 | 209 | 12.9 | 24.1 | 0.00 | 0.00 | 0.00 | 44 | 1017.7 |
| 20260502113723 | 21 | 225 | 12.9 | 24.1 | 0.00 | 0.00 | 0.00 | 47 | 1017.9 |
| 20260502112222 | 20 | 207 | 12.9 | 24.1 | 0.00 | 0.00 | 0.00 | 42 | 1018.0 |
| 20260502110722 | 20 | 204 | 12.9 | 24.1 | 0.00 | 0.00 | 0.00 | 43 | 1018.1 |
| 20260502105222 | 20 | 199 | 17.7 | 27.4 | 0.00 | 0.00 | 0.00 | 42 | 1018.2 |
| 20260502103722 | 21 | 204 | 12.9 | 24.1 | 0.00 | 0.00 | 0.00 | 42 | 1018.2 |
| 20260502102221 | 21 | 210 | 12.9 | 24.1 | 0.00 | 0.00 | 0.00 | 42 | 1018.2 |
| 20260502100721 | 21 | 184 | 12.9 | 24.1 | 0.00 | 0.00 | 0.00 | 43 | 1018.4 |
| 20260502090720 | 20 | 197 | 17.7 | 24.1 | 0.00 | 0.00 | 0.00 | 40 | 1018.6 |
| 20260502070716 | 16 | 187 | 9.7 | 17.7 | 0.00 | 0.00 | 0.00 | 46 | 1018.9 |
| 20260502065216 | 15 | 167 | 9.7 | 17.7 | 0.00 | 0.00 | 0.00 | 50 | 1018.8 |
| 20260502063716 | 15 | 162 | 6.4 | 12.9 | 0.00 | 0.00 | 0.00 | 51 | 1018.9 |
| 20260502062215 | 13 | 155 | 9.7 | 12.9 | 0.00 | 0.00 | 0.00 | 55 | 1019.0 |
| 20260502060716 | 12 | 152 | 9.7 | 12.9 | 0.00 | 0.00 | 0.00 | 56 | 1019.0 |
| 20260502055214 | 12 | 152 | 9.7 | 12.9 | 0.00 | 0.00 | 0.00 | 56 | 1019.0 |
| 20260502053714 | 11 | 148 | 9.7 | 12.9 | 0.00 | 0.00 | 0.00 | 60 | 1019.0 |
| 20260502052214 | 11 | 149 | 9.7 | 12.9 | 0.00 | 0.00 | 0.00 | 61 | 1019.0 |
| 20260502050714 | 10 | 147 | 9.7 | 12.9 | 0.00 | 0.00 | 0.00 | 62 | 1019.0 |
| 20260502045214 | 10 | 145 | 9.7 | 9.7 | 0.00 | 0.00 | 0.00 | 66 | 1019.1 |
| 20260502043714 | 8 | 144 | 6.4 | 9.7 | 0.00 | 0.00 | 0.00 | 66 | 1019.1 |
| 20260502042214 | 10 | 147 | 6.4 | 9.7 | 0.00 | 0.00 | 0.00 | 65 | 1019.2 |
| 20260502040714 | 10 | 154 | 6.4 | 9.7 | 0.00 | 0.00 | 0.00 | 63 | 1019.4 |
| 20260502035214 | 10 | 153 | 6.4 | 9.7 | 0.00 | 0.00 | 0.00 | 62 | 1019.5 |
| 20260502033714 | 10 | 153 | 9.7 | 9.7 | 0.00 | 0.00 | 0.00 | 62 | 1019.5 |
| 20260502032214 | 10 | 151 | 6.4 | 9.7 | 0.00 | 0.00 | 0.00 | 61 | 1019.5 |
| 20260502030714 | 10 | 152 | 6.4 | 9.7 | 0.00 | 0.00 | 0.00 | 60 | 1019.7 |
| 20260502025214 | 10 | 153 | 6.4 | 9.7 | 0.00 | 0.00 | 0.00 | 59 | 1019.7 |
| 20260502023714 | 10 | 151 | 6.4 | 9.7 | 0.00 | 0.00 | 0.00 | 57 | 1019.8 |
| 20260502022213 | 10 | 150 | 6.4 | 9.7 | 0.00 | 0.00 | 0.00 | 58 | 1019.9 |
| 20260502020713 | 10 | 153 | 6.4 | 12.9 | 0.00 | 0.00 | 0.00 | 58 | 1020.1 |
| 20260502015211 | 10 | 152 | 9.7 | 12.9 | 0.00 | 0.00 | 0.00 | 58 | 1020.1 |
| 20260502013712 | 11 | 150 | 6.4 | 9.7 | 0.00 | 0.00 | 0.00 | 56 | 1020.4 |
| 20260502012210 | 11 | 148 | 6.4 | 9.7 | 0.00 | 0.00 | 0.00 | 55 | 1020.5 |
| 20260502010711 | 11 | 153 | 6.4 | 9.7 | 0.00 | 0.00 | 0.00 | 54 | 1020.6 |
| 20260502005210 | 11 | 153 | 6.4 | 12.9 | 0.00 | 0.00 | 0.00 | 53 | 1020.8 |
| 20260502003710 | 12 | 152 | 6.4 | 12.9 | 0.00 | 0.00 | 0.00 | 53 | 1020.9 |
| 20260502002209 | 12 | 156 | 6.4 | 9.7 | 0.00 | 0.00 | 0.00 | 51 | 1020.9 |
| 20260502000709 | 12 | 157 | 6.4 | 9.7 | 0.00 | 0.00 | 0.00 | 51 | 1021.0 |
| 20260501235208 | 10 | 157 | 6.4 | 6.4 | 0.00 | 0.00 | 0.00 | 60 | 1021.2 |
| 20260501233708 | 10 | 146 | 6.4 | 6.4 | 0.00 | 0.00 | 0.00 | 65 | 1021.3 |
| 20260501232207 | 10 | 145 | 6.4 | 6.4 | 0.00 | 0.00 | 0.00 | 62 | 1021.2 |
| 20260501230706 | 10 | 145 | 6.4 | 6.4 | 0.00 | 0.00 | 0.00 | 65 | 1021.4 |
| 20260501225206 | 8 | 148 | 3.2 | 6.4 | 0.00 | 0.00 | 0.00 | 75 | 1021.5 |
| 20260501223707 | 7 | 151 | 6.4 | 6.4 | 0.00 | 0.00 | 0.00 | 80 | 1021.5 |
| 20260501222206 | 7 | 150 | 6.4 | 6.4 | 0.00 | 0.00 | 0.00 | 81 | 1021.6 |
| 20260501220706 | 8 | 145 | 3.2 | 3.2 | 0.00 | 0.00 | 0.00 | 80 | 1021.7 |
| 20260501215206 | 8 | 144 | 3.2 | 3.2 | 0.00 | 0.00 | 0.00 | 81 | 1021.7 |